Regional Weather Roundup
Issued by NWS Charleston, WV

Home | Current Version | Previous Version | Graphics & Text | Print | Product List | Glossary On
Versions: 1 2 3 4 5 6 7 8 9 10 11 12 13 14 15 16 17 18 19 20 21 22 23 24 25 26 27 28 29 30 31 32 33 34 35 36 37 38 39 40 41 42 43 44 45 46 47 48 49 50
279
ASUS41 KRLX 141310
RWRRLX
West Virginia Regional Weather Roundup
National Weather Service Charleston WV
800 AM EST SUN FEB 14 2016

Note: "fair" indicates few or no clouds below 12,000 feet with no
significant weather and/or obstructions to visibility.

WVZ003-141400-
Northern Panhandle of West Virginia

CITY           SKY/WX    TMP DP  RH WIND       PRES   REMARKS
WHEELING         N/A      2  -2  83 SE3       30.45S
$$

WVZ009-141400-
Northwest West Virginia

CITY           SKY/WX    TMP DP  RH WIND       PRES   REMARKS
PARKERSBURG      N/A     -1  -6  79 CALM      30.51S
$$

WVZ006-141400-
Western West Virginia

CITY           SKY/WX    TMP DP  RH WIND       PRES   REMARKS
HUNTINGTON     MOCLDY    10   4  76 E3        30.47F
$$

WVZ015-141400-
West Central West Virginia

CITY           SKY/WX    TMP DP  RH WIND       PRES   REMARKS
CHARLESTON       N/A      5   1  83 CALM      30.49R
$$

WVZ022-031-141400-
North Central West Virginia

CITY           SKY/WX    TMP DP  RH WIND       PRES   REMARKS
CLARKSBURG       N/A     16  -8  34 E5        30.46R WCI   9
MORGANTOWN     NOT AVBL
$$

WVZ025-035-042-045-141400-
Southern West Virginia

CITY           SKY/WX    TMP DP  RH WIND       PRES   REMARKS
BECKLEY          N/A      2  -6  69 CALM      30.33R
LOGAN          CLOUDY     9   0  66 CALM      30.40F
BLUEFIELD      CLOUDY     3  -6  66 CALM      30.31R
LEWISBURG        N/A      1  -4  76 CALM      30.36S
$$

WVZ047-141400-
Northern Mountains of West Virginia

CITY           SKY/WX    TMP DP  RH WIND       PRES   REMARKS
ELKINS         CLOUDY    -1  -7  75 CALM      30.39R
$$

WVZ052-141400-
Eastern Panhandle of West Virginia

CITY           SKY/WX    TMP DP  RH WIND       PRES   REMARKS
MARTINSBURG      N/A     11  -3  53 NW6       30.52R WCI   1
PETERSBURG       N/A     10   2  69 CALM      30.50R
$$




USA.gov is the U.S. government's official web portal to all federal, state and local government web resources and services.